Location: Passau
(48.5721°N, 13.4363°E)
Time: 11:57:36
(UTC+02:00)

ISS - Pass Details

Date: 25 September 2020
Orbit: 418 x 420 km, 51.6° (Epoch: 21 October)

Event Time Altitude Azimuth Distance (km) Brightness Sun altitude
Rises 19:25:08 0° 257° (WSW) 2,362 1.8 -5.5°
Reaches altitude 10° 19:27:14 10° 260° (W) 1,500 0.6 -5.8°
Maximum altitude 19:30:35 68° 344° (NNW) 456 -3.5 -6.4°
Drops below altitude 10° 19:33:57 10° 68° (ENE) 1,505 -1.5 -6.9°
Enters shadow 19:34:32 - 69° (ENE) 1,740 -1.2 -7.0°
Exits shadow 20:09:49 -72° 86° (E) 12,575 3.6 -12.8°
